USA 255

Last updated on Sat Nov 09 2019 04:19:25 GMT+0000 (Coordinated Universal Time)

1 40101U 14043C 19310.88763966 .00000056 00000-0 00000+0 0 9995 2 40101 3.6108 74.5300 0013257 258.2546 97.8220 0.98722024 1468
UTC large
Height (km)
Speed (km/s)
/
Latitude / Longitude
Inclination (degrees)
Orbital Period (minutes)
Azimuth
Elevation
Range (km)
Doppler Factor

Next 0 passes for location: London (51.5072 / 0.1276)

Sorry there are no passes over London.